[keps] orb12034.amsat
Ray Hoad
ray.hoad at mypbmail.com
Fri Feb 3 18:15:29 PST 2012
SB KEPS @ AMSAT $ORB12034.O
Orbital Elements 12034.OSCAR
HR AMSAT ORBITAL ELEMENTS FOR OSCAR SATELLITES
FROM WA5QGD FORT WORTH,TX February 3, 2012
Send SUBSCRIBE KEPS/UNSUBSCRIBE KEPS to majordomo at amsat.org only
BID: ORB12034.O
TO ALL RADIO AMATEURS BT
Satellite: AO-07
Catalog number: 07530
Epoch time: 12034.59309480
Element set: 297
Inclination: 101.3985 deg
RA of node: 037.0263 deg
Eccentricity: 0.0011764
Arg of perigee: 185.8886 deg
Mean anomaly: 174.2043 deg
Mean motion: 12.53587365 rev/day
Decay rate: -2.7e-07 rev/day^2
Epoch rev: 70318
Checksum: 305
Satellite: FO-29
Catalog number: 24278
Epoch time: 12034.37430729
Element set: 768
Inclination: 098.5753 deg
RA of node: 152.7352 deg
Eccentricity: 0.0350983
Arg of perigee: 018.4819 deg
Mean anomaly: 342.8703 deg
Mean motion: 13.52976518 rev/day
Decay rate: -4.8e-07 rev/day^2
Epoch rev: 76372
Checksum: 344
Satellite: SO-33
Catalog number: 25509
Epoch time: 12033.36417406
Element set: 0159
Inclination: 031.4319 deg
RA of node: 022.2499 deg
Eccentricity: 0.0352394
Arg of perigee: 094.9865 deg
Mean anomaly: 269.1074 deg
Mean motion: 14.28663275 rev/day
Decay rate: 1.93e-06 rev/day^2
Epoch rev: 69321
Checksum: 315
Satellite: RS-22
Catalog number: 27939
Epoch time: 12034.69181737
Element set: 50
Inclination: 097.8223 deg
RA of node: 242.3227 deg
Eccentricity: 0.0013152
Arg of perigee: 336.2266 deg
Mean anomaly: 023.8332 deg
Mean motion: 14.63888690 rev/day
Decay rate: 4.02e-06 rev/day^2
Epoch rev: 44620
Checksum: 290
Satellite: VO-52
Catalog number: 28650
Epoch time: 12033.68799199
Element set: 0016
Inclination: 097.6152 deg
RA of node: 071.1912 deg
Eccentricity: 0.0027474
Arg of perigee: 124.4088 deg
Mean anomaly: 235.9703 deg
Mean motion: 14.82653690 rev/day
Decay rate: 1.009e-05 rev/day^2
Epoch rev: 36489
Checksum: 326
Satellite: HO-68
Catalog number: 36122
Epoch time: 12034.68224572
Element set: 166
Inclination: 100.3817 deg
RA of node: 096.6465 deg
Eccentricity: 0.0007729
Arg of perigee: 058.5953 deg
Mean anomaly: 301.5920 deg
Mean motion: 13.16292831 rev/day
Decay rate: -4.4e-07 rev/day^2
Epoch rev: 10269
Checksum: 297
/EX
SB KEPS @ AMSAT $ORB12034.D
Orbital Elements 12034.MICROS
HR AMSAT ORBITAL ELEMENTS FOR THE MICROSATS
FROM WA5QGD FORT WORTH,TX February 3, 2012
Send SUBSCRIBE KEPS/UNSUBSCRIBE KEPS to majordomo at amsat.org only
BID: ORB12034.D
TO ALL RADIO AMATEURS BT
Satellite: UO-11
Catalog number: 14781
Epoch time: 12033.87042278
Element set: 0784
Inclination: 097.9748 deg
RA of node: 094.4685 deg
Eccentricity: 0.0010037
Arg of perigee: 109.5607 deg
Mean anomaly: 250.6690 deg
Mean motion: 14.80298586 rev/day
Decay rate: 4.78e-06 rev/day^2
Epoch rev: 49991
Checksum: 348
Satellite: AO-16
Catalog number: 20439
Epoch time: 12034.86565325
Element set: 388
Inclination: 098.4142 deg
RA of node: 342.1084 deg
Eccentricity: 0.0010340
Arg of perigee: 193.6766 deg
Mean anomaly: 166.4137 deg
Mean motion: 14.32014091 rev/day
Decay rate: 1.31e-06 rev/day^2
Epoch rev: 15077
Checksum: 278
Satellite: LO-19
Catalog number: 20442
Epoch time: 12033.86124380
Element set: 0325
Inclination: 098.3796 deg
RA of node: 344.6230 deg
Eccentricity: 0.0011406
Arg of perigee: 188.8561 deg
Mean anomaly: 171.2427 deg
Mean motion: 14.32234808 rev/day
Decay rate: 1.18e-06 rev/day^2
Epoch rev: 15081
Checksum: 280
Satellite: AO-27
Catalog number: 22825
Epoch time: 12034.85140241
Element set: 23
Inclination: 098.5602 deg
RA of node: 339.8595 deg
Eccentricity: 0.0008004
Arg of perigee: 320.1085 deg
Mean anomaly: 039.9503 deg
Mean motion: 14.29427050 rev/day
Decay rate: 1.25e-06 rev/day^2
Epoch rev: 95728
Checksum: 283
Satellite: IO-26
Catalog number: 22826
Epoch time: 12034.87783715
Element set: 771
Inclination: 098.5545 deg
RA of node: 340.2922 deg
Eccentricity: 0.0008576
Arg of perigee: 313.9435 deg
Mean anomaly: 046.1036 deg
Mean motion: 14.29697382 rev/day
Decay rate: 1.17e-06 rev/day^2
Epoch rev: 95741
Checksum: 327
Satellite: GO-32
Catalog number: 25397
Epoch time: 12034.34935544
Element set: 694
Inclination: 098.3495 deg
RA of node: 019.7993 deg
Eccentricity: 0.0001148
Arg of perigee: 004.4524 deg
Mean anomaly: 355.6669 deg
Mean motion: 14.23255811 rev/day
Decay rate: 1.00e-06 rev/day^2
Epoch rev: 70484
Checksum: 312
Satellite: NO-44
Catalog number: 26931
Epoch time: 12033.68458682
Element set: 0963
Inclination: 067.0525 deg
RA of node: 109.5636 deg
Eccentricity: 0.0005932
Arg of perigee: 279.0180 deg
Mean anomaly: 081.0241 deg
Mean motion: 14.29756454 rev/day
Decay rate: -5.5e-07 rev/day^2
Epoch rev: 53987
Checksum: 321
Satellite: SO-50
Catalog number: 27607
Epoch time: 12033.38863524
Element set: 0679
Inclination: 064.5596 deg
RA of node: 347.9385 deg
Eccentricity: 0.0085118
Arg of perigee: 275.1093 deg
Mean anomaly: 084.0300 deg
Mean motion: 14.72198020 rev/day
Decay rate: 7.26e-06 rev/day^2
Epoch rev: 48997
Checksum: 332
Satellite: CO-55
Catalog number: 27844
Epoch time: 12033.58772258
Element set: 0302
Inclination: 098.7049 deg
RA of node: 043.9347 deg
Eccentricity: 0.0009022
Arg of perigee: 254.1949 deg
Mean anomaly: 105.8226 deg
Mean motion: 14.20955751 rev/day
Decay rate: 2.11e-06 rev/day^2
Epoch rev: 44563
Checksum: 306
Satellite: CO-57
Catalog number: 27848
Epoch time: 12033.56808960
Element set: 0251
Inclination: 098.7136 deg
RA of node: 043.1911 deg
Eccentricity: 0.0008787
Arg of perigee: 259.1460 deg
Mean anomaly: 100.8716 deg
Mean motion: 14.20716296 rev/day
Decay rate: 1.64e-06 rev/day^2
Epoch rev: 44557
Checksum: 317
Satellite: AO-51
Catalog number: 28375
Epoch time: 12033.87961406
Element set: 0186
Inclination: 098.1277 deg
RA of node: 005.5870 deg
Eccentricity: 0.0084513
Arg of perigee: 090.4326 deg
Mean anomaly: 270.6560 deg
Mean motion: 14.40889961 rev/day
Decay rate: 1.53e-06 rev/day^2
Epoch rev: 39928
Checksum: 326
Satellite: CP3
Catalog number: 31129
Epoch time: 12033.96919061
Element set: 0087
Inclination: 097.8874 deg
RA of node: 049.7052 deg
Eccentricity: 0.0101021
Arg of perigee: 183.1297 deg
Mean anomaly: 176.9267 deg
Mean motion: 14.52876653 rev/day
Decay rate: 6.83e-06 rev/day^2
Epoch rev: 25434
Checksum: 319
Satellite: CO-65
Catalog number: 32785
Epoch time: 12033.67651587
Element set: 0219
Inclination: 097.8196 deg
RA of node: 097.8496 deg
Eccentricity: 0.0015554
Arg of perigee: 141.9531 deg
Mean anomaly: 218.2802 deg
Mean motion: 14.82658895 rev/day
Decay rate: 1.083e-05 rev/day^2
Epoch rev: 20368
Checksum: 348
Satellite: PRISM
Catalog number: 33493
Epoch time: 12034.76898977
Element set: 390
Inclination: 098.1496 deg
RA of node: 172.3709 deg
Eccentricity: 0.0019316
Arg of perigee: 016.0125 deg
Mean anomaly: 344.1695 deg
Mean motion: 14.83147984 rev/day
Decay rate: 2.165e-05 rev/day^2
Epoch rev: 16382
Checksum: 329
Satellite: SOHLA-1
Catalog number: 33496
Epoch time: 12033.91372347
Element set: 0657
Inclination: 098.0920 deg
RA of node: 146.6638 deg
Eccentricity: 0.0007587
Arg of perigee: 109.1389 deg
Mean anomaly: 251.0640 deg
Mean motion: 14.69857695 rev/day
Decay rate: 2.66e-06 rev/day^2
Epoch rev: 16237
Checksum: 330
Satellite: TISAT-1
Catalog number: 36799
Epoch time: 12033.87489852
Element set: 0662
Inclination: 098.0760 deg
RA of node: 109.2026 deg
Eccentricity: 0.0013840
Arg of perigee: 249.1287 deg
Mean anomaly: 110.8407 deg
Mean motion: 14.81479703 rev/day
Decay rate: 1.441e-05 rev/day^2
Epoch rev: 08445
Checksum: 313
Satellite: STUDSAT
Catalog number: 36801
Epoch time: 12033.91679196
Element set: 0353
Inclination: 098.0829 deg
RA of node: 109.4588 deg
Eccentricity: 0.0012287
Arg of perigee: 236.0390 deg
Mean anomaly: 123.9624 deg
Mean motion: 14.83015954 rev/day
Decay rate: 4.227e-05 rev/day^2
Epoch rev: 08446
Checksum: 312
Satellite: FO-69
Catalog number: 37227
Epoch time: 12033.44601156
Element set: 0094
Inclination: 071.9693 deg
RA of node: 251.4561 deg
Eccentricity: 0.0018477
Arg of perigee: 216.6687 deg
Mean anomaly: 143.3210 deg
Mean motion: 14.76913447 rev/day
Decay rate: 3.10e-06 rev/day^2
Epoch rev: 01605
Checksum: 293
Satellite: FO-70
Catalog number: 37380
Epoch time: 12033.49675775
Element set: 0096
Inclination: 071.9722 deg
RA of node: 251.7328 deg
Eccentricity: 0.0018865
Arg of perigee: 214.0303 deg
Mean anomaly: 145.9646 deg
Mean motion: 14.76671424 rev/day
Decay rate: 2.88e-06 rev/day^2
Epoch rev: 01595
Checksum: 324
/EX
SB KEPS @ AMSAT $ORB12034.W
Orbital Elements 12034.WEATHER
HR AMSAT ORBITAL ELEMENTS FOR WEATHER SATELLITES
FROM WA5QGD FORT WORTH,TX February 3, 2012
Send SUBSCRIBE KEPS/UNSUBSCRIBE KEPS to majordomo at amsat.org only
BID: ORB12034.W
TO ALL RADIO AMATEURS BT
Satellite: NOAA-10
Catalog number: 16969
Epoch time: 12034.51648816
Element set: 803
Inclination: 098.5968 deg
RA of node: 065.8732 deg
Eccentricity: 0.0011451
Arg of perigee: 268.6564 deg
Mean anomaly: 091.3321 deg
Mean motion: 14.27525380 rev/day
Decay rate: 1.31e-06 rev/day^2
Epoch rev: 32065
Checksum: 304
Satellite: NOAA-11
Catalog number: 19531
Epoch time: 12034.29513879
Element set: 802
Inclination: 098.7379 deg
RA of node: 122.2661 deg
Eccentricity: 0.0010327
Arg of perigee: 248.8844 deg
Mean anomaly: 111.1244 deg
Mean motion: 14.14952164 rev/day
Decay rate: 1.88e-06 rev/day^2
Epoch rev: 20543
Checksum: 291
Satellite: NOAA-12
Catalog number: 21263
Epoch time: 12034.56111869
Element set: 291
Inclination: 098.7393 deg
RA of node: 056.7941 deg
Eccentricity: 0.0012895
Arg of perigee: 231.1805 deg
Mean anomaly: 128.8219 deg
Mean motion: 14.25475673 rev/day
Decay rate: 5.0e-07 rev/day^2
Epoch rev: 7737
Checksum: 307
Satellite: MET-3/5
Catalog number: 21655
Epoch time: 12034.53352314
Element set: 327
Inclination: 082.5546 deg
RA of node: 247.3106 deg
Eccentricity: 0.0012589
Arg of perigee: 302.7861 deg
Mean anomaly: 057.2031 deg
Mean motion: 13.17037761 rev/day
Decay rate: 5.1e-07 rev/day^2
Epoch rev: 98417
Checksum: 280
